Abbeville, LA

5:27 AM CDT on April 28, 2017 (GMT -0500)
Abbeville

Weather History for KIYA - November, 2012

Change the Weather History Date:

Thursday, November 15, 2012

  Actual Average (KARA) Record (KARA)
Temperature  
Mean Temperature 51 °F -  
Max Temperature 66 °F 68 °F 85 °F (1980)
Min Temperature 36 °F 49 °F 25 °F (1969)
Degree Days  
Heating Degree Days 14    
Growing Degree Days 1 (Base 50)    
Moisture  
Dew Point 38 °F    
Average Humidity 68    
Maximum Humidity 100    
Minimum Humidity 32    
Precipitation  
Precipitation 0.00 in - - ()
Sea Level Pressure  
Sea Level Pressure 30.27 in    
Wind  
Wind Speed 3 mph ()    
Max Wind Speed 8 mph    
Max Gust Speed 16 mph    
Visibility 10.0 miles    
Events      
Averages and records for this station are not official NWS values.
T = Trace of Precipitation, MM = Missing Value Source: Averaged Metar Reports

Daily Weather History Graph

Daily Weather History Graph

Search for Another Location

Airport or City:

Trip Planner

Search our weather history database for the weather conditions in past years. The results will help you decide how hot, cold, wet, or windy it might be!

Date:

Astronomy

Nov. 15, 2012 Rise Set
Actual Time 6:33 AM CST 5:11 PM CST
Civil Twilight 6:08 AM CST 5:37 PM CST
Nautical Twilight 5:39 AM CST 6:06 PM CST
Astronomical Twilight 5:11 AM CST 6:34 PM CST
Moon 8:25 AM CST (11/15) 7:08 PM CST (11/15)
Length of Visible Light 11h 28m
Length of Day
10h 38m
Waxing Crescent, 5% of the Moon is Illuminated
Nov 15
Waxing Crescent
Nov 20
First Quarter
Nov 28
Full
Dec 6
Last Quarter
Dec 13
New

Hourly Weather History & Observations

Time (CST) Temp. Windchill Dew Point Humidity Pressure Visibility Wind Dir Wind Speed Gust Speed Precip Events Conditions
12:15 AM 42.8 °F 40.1 °F 37.6 °F 82% 30.29 in 10.0 mi North 4.6 mph - N/A   Clear
12:35 AM 43.3 °F 41.7 °F 37.4 °F 80% 30.29 in 10.0 mi North 3.5 mph - N/A   Clear
12:55 AM 42.1 °F - 37.6 °F 84% 30.29 in 10.0 mi Calm Calm - N/A   Clear
1:15 AM 41.9 °F 40.0 °F 37.0 °F 83% 30.28 in 10.0 mi North 3.5 mph - N/A   Clear
1:35 AM 41.7 °F 38.8 °F 37.2 °F 84% 30.28 in 10.0 mi North 4.6 mph - N/A   Clear
1:55 AM 41.7 °F 39.8 °F 36.7 °F 82% 30.28 in 10.0 mi North 3.5 mph - N/A   Clear
2:15 AM 42.4 °F 39.6 °F 36.7 °F 80% 30.28 in 10.0 mi North 4.6 mph - N/A   Clear
2:35 AM 39.9 °F - 35.8 °F 85% 30.28 in 10.0 mi Calm Calm - N/A   Clear
2:55 AM 39.9 °F 37.8 °F 36.5 °F 88% 30.27 in 10.0 mi ENE 3.5 mph - N/A   Clear
3:15 AM 39.7 °F - 36.5 °F 88% 30.26 in 10.0 mi Calm Calm - N/A   Clear
3:55 AM 38.3 °F - 37.4 °F 97% 30.26 in 10.0 mi Calm Calm - N/A   Clear
4:15 AM 39.0 °F - 37.0 °F 93% 30.26 in 10.0 mi Calm Calm - N/A   Clear
4:35 AM 37.2 °F - 35.4 °F 93% 30.27 in 10.0 mi North - - N/A   Clear
4:55 AM 36.7 °F - 36.0 °F 97% 30.27 in 10.0 mi Calm Calm - N/A   Clear
5:15 AM 37.9 °F - 36.5 °F 95% 30.27 in 10.0 mi Calm Calm - N/A   Clear
5:35 AM 37.6 °F 35.1 °F 36.1 °F 95% 30.28 in 10.0 mi NNW 3.5 mph - N/A   Clear
5:55 AM 37.2 °F 34.7 °F 36.7 °F 98% 30.28 in 10.0 mi NNW 3.5 mph - N/A   Clear
6:15 AM 37.8 °F - 36.7 °F 96% 30.28 in 10.0 mi Calm Calm - N/A   Clear
6:35 AM 36.7 °F - 36.7 °F 100% 30.29 in 10.0 mi Calm Calm - N/A   Clear
6:55 AM 36.9 °F - 36.9 °F 100% 30.29 in 10.0 mi Calm Calm - N/A   Clear
7:15 AM 37.9 °F 35.5 °F 37.9 °F 100% 30.30 in 10.0 mi North 3.5 mph - N/A   Clear
7:35 AM 41.0 °F 38.0 °F 39.9 °F 96% 30.30 in 10.0 mi North 4.6 mph - N/A   Clear
7:55 AM 44.6 °F 40.7 °F 40.6 °F 86% 30.30 in 10.0 mi NNE 6.9 mph - N/A   Clear
8:15 AM 46.9 °F - 41.0 °F 80% 30.32 in 10.0 mi North 6.9 mph - N/A   Clear
8:35 AM 49.1 °F - 41.2 °F 74% 30.33 in 10.0 mi North 4.6 mph - N/A   Clear
8:55 AM 50.5 °F - 40.8 °F 69% 30.32 in 10.0 mi NNE 6.9 mph - N/A   Clear
9:15 AM 52.0 °F - 40.5 °F 65% 30.32 in 10.0 mi NNE 6.9 mph - N/A   Clear
9:35 AM 54.3 °F - 41.5 °F 62% 30.33 in 10.0 mi NE 6.9 mph - N/A   Clear
9:55 AM 55.2 °F - 40.3 °F 57% 30.32 in 10.0 mi NNE 8.1 mph - N/A   Clear
10:15 AM 56.5 °F - 39.6 °F 53% 30.31 in 10.0 mi NE 8.1 mph - N/A   Clear
10:35 AM 57.4 °F - 39.0 °F 50% 30.31 in 10.0 mi NNE 5.8 mph - N/A   Clear
10:55 AM 59.4 °F - 39.6 °F 48% 30.30 in 10.0 mi North 8.1 mph - N/A   Clear
11:15 AM 59.5 °F - 38.5 °F 46% 30.29 in 10.0 mi NE 6.9 mph - N/A   Clear
11:35 AM 61.2 °F - 37.8 °F 42% 30.29 in 10.0 mi NNE 8.1 mph 16.1 mph N/A   Clear
11:55 AM 62.1 °F - 37.9 °F 41% 30.27 in 10.0 mi NE 4.6 mph - N/A   Clear
12:15 PM 62.6 °F - 37.4 °F 39% 30.26 in 10.0 mi NE 4.6 mph - N/A   Clear
12:35 PM 63.3 °F - 38.1 °F 39% 30.25 in 10.0 mi NNE 4.6 mph - N/A   Clear
12:55 PM 64.2 °F - 38.3 °F 38% 30.24 in 10.0 mi Calm Calm - N/A   Clear
1:15 PM 64.8 °F - 37.2 °F 36% 30.23 in 10.0 mi Calm Calm - N/A   Clear
1:35 PM 65.8 °F - 37.0 °F 35% 30.23 in 10.0 mi North 5.8 mph - N/A   Clear
1:55 PM 65.8 °F - 36.7 °F 34% 30.23 in 10.0 mi North 5.8 mph - N/A   Clear
2:15 PM 66.2 °F - 35.8 °F 32% 30.22 in 10.0 mi NNE 5.8 mph - N/A   Clear
2:35 PM 66.0 °F - 35.2 °F 32% 30.21 in 10.0 mi North 6.9 mph - N/A   Clear
2:55 PM 66.2 °F - 35.4 °F 32% 30.21 in 10.0 mi North 5.8 mph - N/A   Clear
3:15 PM 66.2 °F - 36.0 °F 33% 30.21 in 10.0 mi NNE 6.9 mph - N/A   Clear
3:35 PM 66.2 °F - 35.6 °F 32% 30.22 in 10.0 mi NNW 6.9 mph - N/A   Clear
3:55 PM 64.6 °F - 35.8 °F 34% 30.22 in 10.0 mi NNW 5.8 mph - N/A   Clear
4:15 PM 63.1 °F - 35.6 °F 36% 30.22 in 10.0 mi North 5.8 mph - N/A   Clear
4:35 PM 61.0 °F - 37.2 °F 41% 30.22 in 10.0 mi NNW 4.6 mph - N/A   Clear
4:55 PM 58.6 °F - 37.4 °F 45% 30.21 in 10.0 mi North 4.6 mph - N/A   Clear
5:15 PM 56.1 °F - 38.3 °F 51% 30.21 in 10.0 mi North 3.5 mph - N/A   Clear
5:35 PM 54.3 °F - 39.0 °F 56% 30.21 in 10.0 mi North 3.5 mph - N/A   Clear
5:55 PM 55.9 °F - 38.5 °F 52% 30.22 in 10.0 mi North 5.8 mph - N/A   Clear
6:15 PM 54.3 °F - 38.3 °F 55% 30.24 in 10.0 mi North 5.8 mph - N/A   Clear
6:35 PM 52.9 °F - 38.8 °F 59% 30.24 in 10.0 mi North 4.6 mph - N/A   Clear
6:55 PM 54.5 °F - 38.7 °F 55% 30.24 in 10.0 mi North 4.6 mph - N/A   Clear
7:35 PM 48.0 °F - 39.2 °F 72% 30.26 in 10.0 mi Calm Calm - N/A   Clear
7:55 PM 47.3 °F - 39.0 °F 73% 30.27 in 10.0 mi Calm Calm - N/A   Clear
8:15 PM 46.6 °F - 39.6 °F 77% 30.28 in 10.0 mi NNW 3.5 mph - N/A   Clear
8:35 PM 44.8 °F - 40.1 °F 84% 30.28 in 10.0 mi Calm Calm - N/A   Clear
8:55 PM 46.4 °F 45.2 °F 40.5 °F 80% 30.27 in 10.0 mi North 3.5 mph - N/A   Clear
9:15 PM 47.3 °F - 41.0 °F 79% 30.28 in 10.0 mi North 4.6 mph - N/A   Clear
9:35 PM 48.6 °F - 41.2 °F 76% 30.28 in 10.0 mi North 4.6 mph - N/A   Clear
9:55 PM 48.9 °F - 41.5 °F 76% 30.28 in 10.0 mi North 4.6 mph - N/A   Clear
10:15 PM 48.7 °F - 42.1 °F 78% 30.28 in 10.0 mi North 3.5 mph - N/A   Clear
10:35 PM 49.8 °F - 42.4 °F 76% 30.28 in 10.0 mi North 3.5 mph - N/A   Clear
10:55 PM 48.6 °F - 42.3 °F 79% 30.29 in 10.0 mi NNW 3.5 mph - N/A   Clear
11:15 PM 46.0 °F 44.8 °F 42.1 °F 86% 30.29 in 10.0 mi NNW 3.5 mph - N/A   Clear
11:35 PM 46.4 °F - 42.4 °F 86% 30.28 in 10.0 mi Calm Calm - N/A   Clear
11:55 PM 46.8 °F - 42.8 °F 86% 30.28 in 10.0 mi Calm Calm - N/A   Clear